Find Starlink 30352

NORAD ID: 57736 Int'l Des: 2023-131 Owner: SPXS Country: US Constellation: starlink operational
LEOCIRCULAR

当前视图

正在加载3D地球...

About Starlink 30352

Starlink 30352 (NORAD 57736) is a starlink constellation satellite (v2 mini) launched Sep 1, 2023 by SPXS of US. It operates in LEO, CIRCULAR orbit with a mass of 730.00 kg.

即将过境

Passes for default location (London). Set your location on the main map for personalized predictions.

高度历史

Loading altitude history...

两行轨道根数

1 57736U 23131E 26265.86450901 .00000587 00000-0 30866-4 0 9999
2 57736 43.0042 146.4194 0001452 261.3272 98.7415 15.27579097169986
Epoch: Sep 22, 2026 • Age: 15 hours

当前状态

高度 486.0 km
远地点 / 近地点 N/A
速度 7.63 km/s
星下点 38.12°N, 93.24°E
发射日期 Sep 1, 2023
运行时间 3 years
类型 internet

技术详情

分类 Payload
质量 730.00 kg
干质量 700.00 kg
长度 0.30 m
跨度 29.00 m
形状 ? Box + pan
制造商 SPXS
平台类型 Starlink V2M
阶段状态 In Orbit
所有者/国家 SPXS/US

Most Searched